World > North America > United States > Texas

Hourly Fords Corner, TX Regional Weather

Feedback E-mail the Weather

Quick WX

Fords Corner, TX Weather Maps

°F °C°F °C
Fords Corner Weather Map
UTC Time: 6/29/2022, 18:26
Your Time:

Fords Corner, TX Regional Weather

Expires:202206291900;;396768
ASUS44 KFWD 291815
RWRTX 
NORTH TEXAS HOURLY WEATHER ROUNDUP
NATIONAL WEATHER SERVICE FORT WORTH TX
100 PM CDT WED JUN 29 2022

NOTE: "FAIR" INDICATES FEW OR NO CLOUDS BELOW 12,000 FEET WITH NO
SIGNIFICANT WEATHER AND/OR OBSTRUCTIONS TO VISIBILITY.


TXZ095>097-106>112-122>126-135>138-148>153-164>167-291900-
EAST TEXAS
  
CITY           SKY/WX    TMP DP  RH WIND       PRES   REMARKS
PARIS          FAIR      85  52  32 NE9       30.20F                  
6HR MIN TEMP:  66; 6HR MAX TEMP:  86;                                

SULPHUR SPRNGS FAIR      88  49  26 CALM      30.20F                  
6HR MIN TEMP:  67; 6HR MAX TEMP:  88;                                

MOUNT PLEASANT FAIR      87  57  37 E5        30.17F                  
6HR MIN TEMP:  64; 6HR MAX TEMP:  87;                                

GILMER         FAIR      88  51  28 E5        30.16F                  
6HR MIN TEMP:  66; 6HR MAX TEMP:  87;                                

MINEOLA        FAIR      88  57  35 N5        30.16F                  
TYLER          FAIR      91  58  32 N8        30.15F HX  90           
6HR MIN TEMP:  69; 6HR MAX TEMP:  91;                                

LONGVIEW       FAIR      90  57  32 NE9       30.14F                  
6HR MIN TEMP:  67; 6HR MAX TEMP:  91;                                

MARSHALL       FAIR      88  57  34 NW6       30.17F                  
6HR MIN TEMP:  65; 6HR MAX TEMP:  90;                                

ATHENS         FAIR      90  59  35 E8        30.14F                  
PALESTINE      FAIR      91  59  33 VRB6G15   30.13F HX  90           
JACKSONVILLE   FAIR      89  58  34 NE5       30.17S                  
6HR MIN TEMP:  70; 6HR MAX TEMP:  89;                                

CENTER         FAIR      90  57  33 NE7       30.15F                  
NACOGDOCHES    FAIR      91  61  36 N10G21    30.13F HX  91           
6HR MIN TEMP:  70; 6HR MAX TEMP:  92;                                

LUFKIN         FAIR      94  63  35 NE7       30.12F HX  95           
6HR MIN TEMP:  73; 6HR MAX TEMP:  94;                                

$$

SUPPLEMENTAL OBSERVATIONS (NWS FORT WORTH AREA)
  
CITY           SKY/WX    TMP DP  RH WIND       PRES   REMARKS
CADDO GRASSLND   N/A     84  55  37 E3          N/A                   
LBJ GRASSLAND    N/A     91  59  33 E6          N/A  HX  90           
POSSUM KINGDOM   N/A     90  55  31 E6          N/A                   
GRANBURY         N/A     93  54  26 E6G14       N/A  HX  91           
MCGREGOR         N/A     91  57  31 NE9         N/A  HX  90           
TEMPLE           N/A     91  63  38 NE7         N/A  HX  92 

SKY/WX - Weather  TMP - Temperature  DP - Dew Point  RH - Humidity
WIND - Wind Direction/Speed PRES - Barometric Pressure VSB - Visibility
WCI - Wind Chill Index E13G22 Wind - East Wind 13 mph/Gusts of 22 mph

Trending Headlines

Fords Corner Radar Loop



Fords Corner Quick Facts


National Two Day Weather Forecast


E-mail the Fords Corner Weather Forecast

Voice your opinion or tell us about page issues...